| time (UTC) | temp C | wind direction | speed KPH | gust KPH | rain 1hr cm | rain 24hr cm | rain mn cm | humidity % | barometer mb |
| 20260508165241 | 27 | 80 | 24.1 | 40.2 | 0.00 | 0.08 | 0.08 | 85 | 1007.0 |
| 20260508164737 | 27 | 85 | 32.2 | 46.7 | 0.00 | 0.08 | 0.08 | 84 | 1007.0 |
| 20260508164234 | 27 | 100 | 33.8 | 51.5 | 0.00 | 0.08 | 0.08 | 84 | 1007.0 |
| 20260508163732 | 27 | 94 | 33.8 | 46.7 | 0.00 | 0.08 | 0.08 | 85 | 1007.0 |
| 20260508163229 | 27 | 101 | 37.0 | 49.9 | 0.00 | 0.08 | 0.08 | 85 | 1006.6 |
| 20260508162725 | 26 | 86 | 24.1 | 32.2 | 0.00 | 0.08 | 0.08 | 86 | 1007.0 |
| 20260508162222 | 26 | 82 | 29.0 | 43.5 | 0.00 | 0.08 | 0.08 | 86 | 1007.0 |
| 20260508161719 | 26 | 88 | 29.0 | 38.6 | 0.00 | 0.08 | 0.08 | 85 | 1007.3 |
| 20260508161216 | 26 | 94 | 30.6 | 41.8 | 0.00 | 0.08 | 0.08 | 85 | 1007.3 |
| 20260508160714 | 27 | 90 | 33.8 | 41.8 | 0.00 | 0.08 | 0.08 | 85 | 1007.7 |
| 20260508160212 | 27 | 94 | 30.6 | 51.5 | 0.00 | 0.08 | 0.08 | 86 | 1007.7 |
| 20260508155709 | 27 | 93 | 32.2 | 48.3 | 0.00 | 0.08 | 0.08 | 84 | 1007.3 |
| 20260508155206 | 27 | 95 | 29.0 | 38.6 | 0.00 | 0.08 | 0.08 | 83 | 1007.3 |
| 20260508154703 | 27 | 91 | 41.8 | 59.5 | 0.00 | 0.08 | 0.08 | 84 | 1007.3 |
| 20260508154159 | 27 | 96 | 33.8 | 49.9 | 0.00 | 0.08 | 0.08 | 86 | 1007.7 |
| 20260508153656 | 27 | 91 | 27.4 | 38.6 | 0.00 | 0.08 | 0.08 | 87 | 1007.7 |
| 20260508153153 | 26 | 89 | 32.2 | 45.1 | 0.00 | 0.08 | 0.08 | 88 | 1007.7 |
| 20260508152650 | 26 | 90 | 32.2 | 51.5 | 0.00 | 0.08 | 0.08 | 88 | 1007.7 |
| 20260508152145 | 26 | 89 | 27.4 | 45.1 | 0.00 | 0.08 | 0.08 | 88 | 1008.0 |
| 20260508151642 | 26 | 101 | 24.1 | 33.8 | 0.00 | 0.05 | 0.05 | 87 | 1008.0 |
| 20260508151139 | 26 | 91 | 30.6 | 38.6 | 0.00 | 0.05 | 0.05 | 86 | 1008.0 |
| 20260508150636 | 26 | 93 | 25.7 | 35.4 | 0.00 | 0.05 | 0.05 | 86 | 1008.0 |
| 20260508150132 | 26 | 97 | 27.4 | 37.0 | 0.00 | 0.05 | 0.05 | 86 | 1007.7 |
| 20260508145628 | 27 | 91 | 35.4 | 48.3 | 0.00 | 0.05 | 0.05 | 85 | 1008.0 |
| 20260508145125 | 27 | 88 | 29.0 | 43.5 | 0.00 | 0.05 | 0.05 | 85 | 1007.7 |
| 20260508144623 | 27 | 91 | 32.2 | 46.7 | 0.00 | 0.05 | 0.05 | 85 | 1008.0 |
| 20260508144120 | 27 | 87 | 25.7 | 37.0 | 0.00 | 0.05 | 0.05 | 85 | 1008.0 |
| 20260508143617 | 26 | 92 | 32.2 | 53.1 | 0.00 | 0.05 | 0.05 | 85 | 1008.0 |
| 20260508143114 | 26 | 88 | 32.2 | 46.7 | 0.00 | 0.05 | 0.05 | 87 | 1008.0 |
| 20260508142610 | 26 | 89 | 27.4 | 41.8 | 0.00 | 0.03 | 0.03 | 88 | 1008.3 |
| 20260508142107 | 26 | 94 | 27.4 | 33.8 | 0.00 | 0.03 | 0.03 | 89 | 1008.3 |
| 20260508141604 | 26 | 93 | 19.3 | 30.6 | 0.00 | 0.03 | 0.03 | 89 | 1008.8 |
| 20260508141102 | 26 | 88 | 27.4 | 37.0 | 0.00 | 0.03 | 0.03 | 89 | 1008.8 |
| 20260508140558 | 26 | 93 | 30.6 | 43.5 | 0.00 | 0.03 | 0.03 | 90 | 1008.8 |
| 20260508140055 | 26 | 73 | 24.1 | 30.6 | 0.00 | 0.00 | 0.00 | 90 | 1008.8 |
| 20260508135550 | 26 | 80 | 22.5 | 29.0 | 0.00 | 2.01 | 2.01 | 90 | 1009.1 |
| 20260508135047 | 26 | 84 | 27.4 | 32.2 | 0.00 | 1.98 | 1.98 | 90 | 1008.8 |
| 20260508134544 | 26 | 88 | 37.0 | 43.5 | 1.19 | 1.93 | 1.93 | 90 | 1008.8 |
| 20260508134041 | 26 | 91 | 30.6 | 48.3 | 0.00 | 1.85 | 1.85 | 90 | 1008.8 |
| 20260508133538 | 26 | 88 | 33.8 | 48.3 | 0.00 | 1.80 | 1.80 | 89 | 1008.8 |
| 20260508133035 | 26 | 98 | 35.4 | 49.9 | 0.00 | 1.75 | 1.75 | 88 | 1008.8 |
| 20260508132533 | 26 | 84 | 24.1 | 35.4 | 0.00 | 1.75 | 1.75 | 88 | 1008.8 |
| 20260508132029 | 26 | 79 | 20.9 | 29.0 | 0.00 | 1.75 | 1.75 | 88 | 1009.1 |
| 20260508131524 | 26 | 80 | 25.7 | 37.0 | 0.00 | 1.75 | 1.75 | 89 | 1008.8 |
| 20260508131021 | 26 | 76 | 27.4 | 35.4 | 0.00 | 1.75 | 1.75 | 88 | 1008.8 |
| 20260508130519 | 26 | 81 | 30.6 | 41.8 | 1.19 | 1.73 | 1.73 | 87 | 1009.1 |
| 20260508130015 | 27 | 80 | 32.2 | 45.1 | 1.19 | 1.63 | 1.63 | 84 | 1009.1 |
| 20260508125511 | 27 | 83 | 27.4 | 37.0 | 0.00 | 1.60 | 1.60 | 82 | 1008.8 |
| 20260508125009 | 27 | 92 | 27.4 | 35.4 | 0.00 | 1.57 | 1.57 | 82 | 1008.8 |
| 20260508124506 | 27 | 82 | 24.1 | 32.2 | 0.00 | 1.57 | 1.57 | 83 | 1009.1 |
| 20260508124003 | 27 | 94 | 29.0 | 41.8 | 0.00 | 1.57 | 1.57 | 83 | 1009.1 |
| 20260508123502 | 27 | 98 | 19.3 | 25.7 | 0.00 | 1.57 | 1.57 | 82 | 1009.1 |
| 20260508122958 | 27 | 79 | 25.7 | 37.0 | 0.00 | 1.57 | 1.57 | 83 | 1009.1 |
| 20260508122455 | 27 | 80 | 20.9 | 27.4 | 0.00 | 1.57 | 1.57 | 82 | 1009.1 |
| 20260508121952 | 27 | 83 | 25.7 | 38.6 | 0.00 | 1.57 | 1.57 | 81 | 1009.1 |
| 20260508121450 | 27 | 83 | 32.2 | 40.2 | 0.00 | 1.57 | 1.57 | 82 | 1009.1 |
| 20260508120948 | 27 | 92 | 24.1 | 32.2 | 0.00 | 1.57 | 1.57 | 82 | 1008.8 |
| 20260508120445 | 27 | 90 | 32.2 | 40.2 | 0.00 | 1.57 | 1.57 | 83 | 1008.8 |
| 20260508115943 | 27 | 79 | 20.9 | 29.0 | 0.00 | 1.57 | 1.57 | 83 | 1009.1 |
| 20260508115441 | 27 | 88 | 29.0 | 37.0 | 0.00 | 1.57 | 1.57 | 83 | 1008.8 |
| 20260508114937 | 27 | 96 | 30.6 | 45.1 | 0.00 | 1.57 | 1.57 | 83 | 1008.8 |
| 20260508114434 | 27 | 93 | 24.1 | 35.4 | 0.00 | 1.57 | 1.57 | 83 | 1008.8 |
| 20260508113930 | 27 | 100 | 24.1 | 29.0 | 0.00 | 1.57 | 1.57 | 84 | 1008.8 |
| 20260508113428 | 27 | 86 | 30.6 | 38.6 | 0.00 | 1.57 | 1.57 | 85 | 1008.8 |
| 20260508112925 | 26 | 87 | 20.9 | 37.0 | 0.00 | 1.57 | 1.57 | 87 | 1008.8 |
| 20260508112422 | 26 | 93 | 24.1 | 40.2 | 0.00 | 1.57 | 1.57 | 88 | 1008.8 |
| 20260508111918 | 26 | 76 | 25.7 | 30.6 | 0.00 | 1.57 | 1.57 | 87 | 1008.3 |
| 20260508111415 | 26 | 64 | 22.5 | 30.6 | 0.00 | 1.57 | 1.57 | 86 | 1008.3 |
| 20260508110913 | 26 | 79 | 22.5 | 35.4 | 0.00 | 1.57 | 1.57 | 86 | 1008.3 |
| 20260508110410 | 26 | 85 | 22.5 | 30.6 | 0.00 | 1.57 | 1.57 | 87 | 1008.3 |
| 20260508105910 | 26 | 75 | 25.7 | 38.6 | 0.00 | 1.57 | 1.57 | 88 | 1008.0 |
| 20260508105407 | 26 | 72 | 24.1 | 30.6 | 0.00 | 1.57 | 1.57 | 87 | 1008.3 |
| 20260508104904 | 26 | 75 | 29.0 | 41.8 | 0.00 | 1.57 | 1.57 | 86 | 1008.0 |
| 20260508104401 | 27 | 70 | 24.1 | 30.6 | 0.00 | 1.57 | 1.57 | 86 | 1008.0 |
| 20260508103858 | 26 | 77 | 24.1 | 33.8 | 0.00 | 1.57 | 1.57 | 85 | 1008.0 |
| 20260508103355 | 26 | 73 | 27.4 | 35.4 | 0.00 | 1.57 | 1.57 | 85 | 1008.0 |
| 20260508102852 | 27 | 75 | 25.7 | 30.6 | 0.00 | 1.57 | 1.57 | 84 | 1008.0 |
| 20260508102350 | 27 | 78 | 29.0 | 38.6 | 0.00 | 1.57 | 1.57 | 83 | 1007.7 |
| 20260508101847 | 27 | 73 | 29.0 | 35.4 | 0.00 | 1.57 | 1.57 | 83 | 1007.7 |
| 20260508101344 | 27 | 78 | 22.5 | 33.8 | 0.00 | 1.57 | 1.57 | 83 | 1007.7 |
| 20260508100842 | 27 | 79 | 19.3 | 29.0 | 0.00 | 1.57 | 1.57 | 82 | 1008.0 |
| 20260508100341 | 27 | 82 | 24.1 | 33.8 | 0.00 | 1.57 | 1.57 | 81 | 1007.7 |
| 20260508095836 | 27 | 74 | 27.4 | 40.2 | 0.00 | 1.57 | 1.57 | 82 | 1007.7 |
| 20260508095334 | 27 | 80 | 20.9 | 27.4 | 0.00 | 1.57 | 1.57 | 83 | 1007.7 |
| 20260508094831 | 27 | 71 | 24.1 | 32.2 | 0.00 | 1.55 | 1.55 | 83 | 1007.7 |
| 20260508094327 | 27 | 82 | 20.9 | 29.0 | 0.00 | 1.55 | 1.55 | 84 | 1007.7 |
| 20260508093825 | 27 | 76 | 22.5 | 29.0 | 0.00 | 1.55 | 1.55 | 84 | 1007.7 |
| 20260508093322 | 27 | 67 | 25.7 | 33.8 | 0.00 | 1.55 | 1.55 | 84 | 1007.3 |
| 20260508092819 | 27 | 82 | 27.4 | 38.6 | 0.00 | 1.55 | 1.55 | 84 | 1007.7 |
| 20260508092317 | 27 | 81 | 20.9 | 27.4 | 0.00 | 1.55 | 1.55 | 84 | 1007.7 |
| 20260508091815 | 27 | 73 | 27.4 | 37.0 | 0.00 | 1.55 | 1.55 | 84 | 1007.7 |
| 20260508091311 | 27 | 75 | 30.6 | 41.8 | 0.00 | 1.55 | 1.55 | 85 | 1007.7 |
| 20260508090809 | 27 | 68 | 24.1 | 30.6 | 0.00 | 1.55 | 1.55 | 85 | 1007.7 |
| 20260508090308 | 27 | 78 | 30.6 | 40.2 | 0.00 | 1.55 | 1.55 | 84 | 1007.7 |
| 20260508085803 | 27 | 68 | 20.9 | 29.0 | 0.00 | 1.55 | 1.55 | 84 | 1007.7 |
| 20260508085300 | 27 | 73 | 24.1 | 32.2 | 0.00 | 1.55 | 1.55 | 84 | 1007.3 |
| 20260508084755 | 27 | 81 | 24.1 | 33.8 | 0.00 | 1.55 | 1.55 | 84 | 1007.7 |
| 20260508084253 | 27 | 81 | 24.1 | 30.6 | 0.00 | 1.55 | 1.55 | 84 | 1007.3 |
| 20260508083751 | 27 | 76 | 24.1 | 35.4 | 0.00 | 1.55 | 1.55 | 84 | 1007.3 |
| 20260508083248 | 27 | 77 | 24.1 | 29.0 | 0.00 | 1.55 | 1.55 | 85 | 1007.0 |
| 20260508082748 | 27 | 63 | 19.3 | 30.6 | 0.00 | 1.55 | 1.55 | 86 | 1007.3 |
| 20260508082246 | 27 | 63 | 19.3 | 27.4 | 0.00 | 1.55 | 1.55 | 86 | 1007.0 |
| 20260508081743 | 27 | 52 | 24.1 | 33.8 | 0.00 | 1.55 | 1.55 | 86 | 1007.3 |
| 20260508081239 | 27 | 53 | 19.3 | 20.9 | 0.00 | 1.55 | 1.55 | 84 | 1007.0 |
| 20260508080737 | 27 | 64 | 22.5 | 27.4 | 0.00 | 1.55 | 1.55 | 82 | 1007.0 |
| 20260508080235 | 27 | 67 | 16.1 | 22.5 | 0.00 | 1.55 | 1.55 | 82 | 1007.0 |
| 20260508075731 | 27 | 60 | 20.9 | 25.7 | 0.00 | 1.55 | 1.55 | 82 | 1007.0 |
| 20260508075228 | 27 | 57 | 22.5 | 30.6 | 0.00 | 1.55 | 1.55 | 83 | 1007.0 |
| 20260508074726 | 27 | 66 | 22.5 | 29.0 | 0.00 | 1.55 | 1.55 | 83 | 1007.0 |
| 20260508074223 | 27 | 61 | 24.1 | 33.8 | 0.00 | 1.55 | 1.55 | 83 | 1007.0 |
| 20260508073719 | 27 | 64 | 24.1 | 33.8 | 0.00 | 1.55 | 1.55 | 84 | 1007.0 |
| 20260508073218 | 26 | 68 | 24.1 | 32.2 | 0.00 | 1.55 | 1.55 | 85 | 1007.0 |
| 20260508072713 | 26 | 69 | 20.9 | 24.1 | 0.00 | 1.55 | 1.55 | 86 | 1007.0 |
| 20260508072210 | 26 | 67 | 22.5 | 32.2 | 0.00 | 1.55 | 1.55 | 86 | 1006.6 |
| 20260508071708 | 27 | 76 | 27.4 | 38.6 | 0.00 | 1.55 | 1.55 | 85 | 1006.6 |
| 20260508071206 | 27 | 66 | 20.9 | 27.4 | 0.00 | 1.52 | 1.52 | 83 | 1006.6 |
| 20260508070703 | 27 | 46 | 22.5 | 33.8 | 0.00 | 1.52 | 1.52 | 83 | 1006.6 |
| 20260508070202 | 27 | 58 | 25.7 | 33.8 | 0.00 | 1.52 | 1.52 | 83 | 1006.6 |
| 20260508065658 | 27 | 65 | 20.9 | 30.6 | 0.00 | 1.52 | 1.52 | 83 | 1006.6 |
| 20260508065156 | 27 | 55 | 22.5 | 33.8 | 0.00 | 1.52 | 1.52 | 83 | 1006.6 |
| 20260508064654 | 27 | 48 | 19.3 | 27.4 | 0.00 | 1.52 | 1.52 | 81 | 1006.6 |
| 20260508064152 | 27 | 60 | 20.9 | 27.4 | 0.00 | 1.52 | 1.52 | 80 | 1006.6 |
| 20260508063649 | 28 | 66 | 24.1 | 33.8 | 0.00 | 1.52 | 1.52 | 80 | 1006.6 |
| 20260508063147 | 28 | 64 | 33.8 | 41.8 | 0.00 | 1.52 | 1.52 | 79 | 1006.6 |
| 20260508062644 | 28 | 69 | 33.8 | 48.3 | 0.00 | 1.52 | 1.52 | 80 | 1006.3 |
| 20260508062141 | 28 | 70 | 19.3 | 27.4 | 0.00 | 1.52 | 1.52 | 80 | 1007.0 |
| 20260508061638 | 28 | 64 | 22.5 | 25.7 | 0.00 | 1.52 | 1.52 | 80 | 1006.6 |
| 20260508061135 | 28 | 58 | 29.0 | 40.2 | 0.00 | 1.52 | 1.52 | 80 | 1007.0 |
| 20260508060632 | 28 | 67 | 20.9 | 25.7 | 0.00 | 1.52 | 1.52 | 81 | 1007.0 |
| 20260508060129 | 28 | 58 | 22.5 | 30.6 | 0.00 | 1.52 | 1.52 | 81 | 1007.0 |
| 20260508055625 | 28 | 64 | 22.5 | 30.6 | 0.00 | 1.52 | 1.52 | 80 | 1007.0 |
| 20260508055122 | 28 | 63 | 30.6 | 45.1 | 0.00 | 1.52 | 1.52 | 78 | 1007.0 |
| 20260508054618 | 28 | 75 | 27.4 | 37.0 | 0.00 | 1.52 | 1.52 | 76 | 1007.0 |
| 20260508054116 | 28 | 76 | 24.1 | 30.6 | 0.00 | 1.52 | 1.52 | 77 | 1007.3 |
| 20260508053612 | 28 | 72 | 24.1 | 32.2 | 0.00 | 1.52 | 1.52 | 78 | 1007.3 |
| 20260508053110 | 28 | 82 | 24.1 | 33.8 | 0.00 | 1.52 | 1.52 | 78 | 1007.3 |
| 20260508052608 | 28 | 64 | 29.0 | 37.0 | 0.00 | 1.52 | 1.52 | 79 | 1007.3 |
| 20260508052105 | 28 | 64 | 27.4 | 35.4 | 0.00 | 1.52 | 1.52 | 80 | 1007.7 |
| 20260508051600 | 28 | 68 | 29.0 | 37.0 | 0.00 | 1.52 | 1.52 | 81 | 1007.7 |
| 20260508051056 | 28 | 63 | 25.7 | 32.2 | 0.00 | 1.52 | 1.52 | 83 | 1007.7 |
| 20260508050552 | 27 | 52 | 14.5 | 16.1 | 0.00 | 1.52 | 1.52 | 85 | 1007.7 |
| 20260508050050 | 27 | 98 | 11.3 | 16.1 | 0.00 | 1.52 | 1.52 | 84 | 1007.7 |
| 20260508045546 | 27 | 75 | 16.1 | 20.9 | 0.00 | 1.52 | 1.52 | 84 | 1007.7 |
| 20260508045044 | 27 | 62 | 22.5 | 30.6 | 0.00 | 1.52 | 1.52 | 83 | 1007.7 |
| 20260508044541 | 27 | 54 | 20.9 | 30.6 | 0.00 | 1.52 | 1.52 | 83 | 1007.7 |
| 20260508044037 | 27 | 45 | 16.1 | 24.1 | 0.00 | 1.52 | 1.52 | 83 | 1008.0 |
| 20260508043533 | 27 | 46 | 17.7 | 24.1 | 0.00 | 1.52 | 1.52 | 83 | 1008.0 |
| 20260508043031 | 27 | 45 | 16.1 | 20.9 | 0.00 | 1.52 | 1.52 | 84 | 1008.0 |
| 20260508042527 | 27 | 35 | 17.7 | 25.7 | 0.00 | 1.52 | 1.52 | 84 | 1008.0 |
| 20260508042025 | 27 | 65 | 22.5 | 25.7 | 0.00 | 1.52 | 1.52 | 85 | 1008.0 |
| 20260508041521 | 27 | 54 | 17.7 | 24.1 | 0.00 | 1.52 | 1.52 | 85 | 1008.0 |
| 20260508041018 | 27 | 64 | 20.9 | 27.4 | 0.00 | 1.52 | 1.52 | 85 | 1008.0 |
| 20260508040515 | 27 | 64 | 24.1 | 30.6 | 0.00 | 1.52 | 1.52 | 85 | 1008.0 |
| 20260508040012 | 27 | 66 | 24.1 | 32.2 | 0.00 | 1.52 | 1.52 | 85 | 1008.3 |
| 20260508035509 | 27 | 55 | 20.9 | 27.4 | 0.00 | 1.52 | 1.52 | 85 | 1008.8 |
| 20260508035006 | 27 | 50 | 19.3 | 24.1 | 0.00 | 1.52 | 1.52 | 84 | 1008.8 |
| 20260508034503 | 27 | 60 | 17.7 | 20.9 | 0.00 | 1.52 | 1.52 | 84 | 1008.8 |
| 20260508034000 | 27 | 43 | 14.5 | 19.3 | 0.00 | 1.52 | 1.52 | 85 | 1008.8 |
| 20260508033458 | 26 | 47 | 16.1 | 20.9 | 0.00 | 1.52 | 1.52 | 87 | 1008.8 |
| 20260508032955 | 26 | 58 | 17.7 | 25.7 | 0.00 | 1.52 | 1.52 | 88 | 1008.8 |
| 20260508032452 | 26 | 62 | 11.3 | 16.1 | 0.00 | 1.52 | 1.52 | 88 | 1008.8 |
| 20260508031949 | 26 | 58 | 19.3 | 25.7 | 0.00 | 1.52 | 1.52 | 88 | 1008.8 |
| 20260508031447 | 26 | 61 | 17.7 | 20.9 | 0.00 | 1.52 | 1.52 | 87 | 1009.1 |
| 20260508030942 | 26 | 66 | 17.7 | 20.9 | 0.00 | 1.52 | 1.52 | 87 | 1009.1 |
| 20260508030439 | 26 | 70 | 19.3 | 27.4 | 0.00 | 1.50 | 1.50 | 88 | 1009.4 |
| 20260508025937 | 26 | 83 | 19.3 | 33.8 | 0.00 | 1.50 | 1.50 | 88 | 1009.4 |
| 20260508025433 | 26 | 32 | 22.5 | 27.4 | 0.00 | 1.50 | 1.50 | 88 | 1009.4 |
| 20260508024930 | 26 | 53 | 17.7 | 29.0 | 0.00 | 1.50 | 1.50 | 89 | 1009.4 |
| 20260508024426 | 26 | 47 | 16.1 | 19.3 | 0.00 | 1.50 | 1.50 | 88 | 1009.4 |
| 20260508023923 | 26 | 58 | 27.4 | 35.4 | 0.00 | 1.47 | 1.47 | 89 | 1009.4 |
| 20260508023420 | 25 | 58 | 20.9 | 24.1 | 0.00 | 1.47 | 1.47 | 89 | 1009.4 |
| 20260508022917 | 25 | 49 | 27.4 | 35.4 | 0.00 | 1.47 | 1.47 | 89 | 1009.4 |
| 20260508022413 | 25 | 63 | 30.6 | 40.2 | 0.00 | 1.45 | 1.45 | 89 | 1009.8 |
| 20260508021910 | 25 | 92 | 32.2 | 43.5 | 2.39 | 1.32 | 1.32 | 89 | 1009.8 |
| 20260508021406 | 26 | 49 | 35.4 | 45.1 | 2.39 | 1.07 | 1.07 | 87 | 1009.4 |
| 20260508020902 | 27 | 16 | 24.1 | 29.0 | 0.00 | 0.97 | 0.97 | 86 | 1009.4 |
| 20260508020400 | 26 | 23 | 16.1 | 20.9 | 0.00 | 0.97 | 0.97 | 87 | 1009.4 |
| 20260508015857 | 27 | 34 | 19.3 | 27.4 | 0.00 | 0.94 | 0.94 | 86 | 1009.8 |
| 20260508015354 | 27 | 32 | 16.1 | 20.9 | 0.00 | 0.94 | 0.94 | 86 | 1009.8 |
| 20260508014850 | 26 | 32 | 16.1 | 20.9 | 0.00 | 0.94 | 0.94 | 86 | 1009.8 |
| 20260508014348 | 26 | 37 | 14.5 | 19.3 | 0.00 | 0.94 | 0.94 | 87 | 1009.8 |
| 20260508013843 | 26 | 19 | 16.1 | 22.5 | 1.19 | 0.91 | 0.91 | 87 | 1009.8 |
| 20260508013340 | 26 | 25 | 12.9 | 16.1 | 0.00 | 0.91 | 0.91 | 87 | 1010.1 |
| 20260508012837 | 26 | 9 | 9.7 | 19.3 | 0.00 | 0.91 | 0.91 | 88 | 1010.1 |
| 20260508012334 | 26 | 8 | 14.5 | 19.3 | 0.00 | 0.91 | 0.91 | 88 | 1010.1 |
| 20260508011832 | 26 | 14 | 11.3 | 16.1 | 0.00 | 0.91 | 0.91 | 88 | 1010.1 |
| 20260508011330 | 26 | 17 | 14.5 | 17.7 | 0.00 | 0.91 | 0.91 | 88 | 1010.1 |
| 20260508010827 | 25 | 29 | 12.9 | 20.9 | 0.00 | 0.91 | 0.91 | 88 | 1010.1 |
| 20260508010324 | 25 | 39 | 12.9 | 16.1 | 0.00 | 0.91 | 0.91 | 88 | 1010.5 |
| 20260508005821 | 25 | 39 | 12.9 | 17.7 | 0.00 | 0.91 | 0.91 | 88 | 1010.5 |
| 20260508005318 | 25 | 28 | 14.5 | 19.3 | 0.00 | 0.91 | 0.91 | 88 | 1010.5 |
| 20260508004815 | 25 | 49 | 11.3 | 14.5 | 0.00 | 0.91 | 0.91 | 88 | 1010.5 |
| 20260508004310 | 24 | 38 | 14.5 | 20.9 | 0.00 | 0.91 | 0.91 | 88 | 1010.5 |
| 20260508003807 | 24 | 44 | 12.9 | 16.1 | 2.39 | 0.86 | 0.86 | 89 | 1010.8 |
| 20260508003304 | 24 | 52 | 9.7 | 11.3 | 0.00 | 0.84 | 0.84 | 89 | 1010.8 |
| 20260508002801 | 24 | 60 | 17.7 | 20.9 | 2.39 | 0.69 | 0.69 | 89 | 1011.1 |
| 20260508002258 | 24 | 68 | 20.9 | 30.6 | 1.19 | 0.64 | 0.64 | 89 | 1011.1 |
| 20260508001754 | 24 | 66 | 24.1 | 37.0 | 1.19 | 0.58 | 0.58 | 90 | 1011.1 |
| 20260508001249 | 24 | 78 | 25.7 | 37.0 | 0.00 | 0.51 | 0.51 | 89 | 1011.5 |
| 20260508000746 | 25 | 71 | 32.2 | 40.2 | 4.80 | 0.30 | 0.30 | 88 | 1011.1 |
| 20260508000243 | 27 | 74 | 57.9 | 74.0 | 0.00 | 0.05 | 0.05 | 83 | 1010.8 |
| 20260507235739 | 28 | 49 | 22.5 | 29.0 | 0.00 | 0.05 | 0.05 | 83 | 1010.5 |
| 20260507235237 | 28 | 50 | 22.5 | 30.6 | 0.00 | 0.05 | 0.05 | 83 | 1010.5 |
| 20260507234734 | 28 | 35 | 14.5 | 19.3 | 0.00 | 0.05 | 0.05 | 82 | 1010.5 |
| 20260507234230 | 28 | 45 | 16.1 | 19.3 | 0.00 | 0.05 | 0.05 | 81 | 1010.5 |
| 20260507233727 | 28 | 22 | 14.5 | 19.3 | 0.00 | 0.05 | 0.05 | 81 | 1010.1 |
| 20260507233225 | 28 | 25 | 17.7 | 22.5 | 0.00 | 0.05 | 0.05 | 80 | 1010.1 |
| 20260507232722 | 28 | 48 | 14.5 | 17.7 | 0.00 | 0.05 | 0.05 | 80 | 1010.1 |
| 20260507232219 | 28 | 37 | 19.3 | 25.7 | 0.00 | 0.05 | 0.05 | 81 | 1010.1 |
| 20260507231715 | 28 | 16 | 16.1 | 17.7 | 0.00 | 0.05 | 0.05 | 82 | 1010.1 |
| 20260507231213 | 28 | 23 | 19.3 | 25.7 | 0.00 | 0.05 | 0.05 | 81 | 1009.8 |
| 20260507230709 | 29 | 27 | 17.7 | 24.1 | 0.00 | 0.05 | 0.05 | 79 | 1009.8 |
| 20260507230207 | 29 | 26 | 19.3 | 25.7 | 0.00 | 0.05 | 0.05 | 77 | 1009.8 |
| 20260507225706 | 29 | 21 | 17.7 | 25.7 | 0.00 | 0.05 | 0.05 | 78 | 1009.8 |
| 20260507225203 | 28 | 31 | 19.3 | 27.4 | 0.00 | 0.05 | 0.05 | 79 | 1009.8 |
| 20260507224658 | 29 | 23 | 14.5 | 22.5 | 0.00 | 0.05 | 0.05 | 79 | 1009.8 |
| 20260507224155 | 29 | 14 | 14.5 | 22.5 | 0.00 | 0.05 | 0.05 | 79 | 1010.1 |
| 20260507223651 | 29 | 23 | 19.3 | 27.4 | 0.00 | 0.05 | 0.05 | 79 | 1009.8 |
| 20260507223148 | 28 | 6 | 12.9 | 16.1 | 0.00 | 0.05 | 0.05 | 80 | 1009.8 |
| 20260507222645 | 28 | 30 | 19.3 | 24.1 | 0.00 | 0.05 | 0.05 | 80 | 1009.8 |
| 20260507222141 | 28 | 28 | 14.5 | 17.7 | 0.00 | 0.05 | 0.05 | 80 | 1009.8 |
| 20260507221638 | 28 | 5 | 14.5 | 20.9 | 0.00 | 0.05 | 0.05 | 80 | 1009.8 |
| 20260507221134 | 28 | 21 | 14.5 | 19.3 | 0.00 | 0.05 | 0.05 | 81 | 1009.4 |
| 20260507220632 | 28 | 27 | 8.0 | 11.3 | 0.00 | 0.05 | 0.05 | 81 | 1009.4 |
| 20260507220130 | 28 | 24 | 17.7 | 25.7 | 0.00 | 0.05 | 0.05 | 81 | 1009.4 |
| 20260507215625 | 28 | 26 | 16.1 | 22.5 | 0.00 | 0.05 | 0.05 | 82 | 1009.4 |
| 20260507215123 | 28 | 13 | 9.7 | 11.3 | 0.00 | 0.05 | 0.05 | 82 | 1009.4 |
| 20260507214620 | 28 | 27 | 11.3 | 16.1 | 0.00 | 0.05 | 0.05 | 82 | 1009.4 |
| 20260507214116 | 28 | 20 | 9.7 | 12.9 | 0.00 | 0.05 | 0.05 | 82 | 1009.4 |
| 20260507213612 | 28 | 19 | 12.9 | 16.1 | 0.00 | 0.05 | 0.05 | 82 | 1009.4 |
| 20260507213110 | 28 | 25 | 9.7 | 12.9 | 0.00 | 0.05 | 0.05 | 82 | 1009.4 |
| 20260507212606 | 28 | 24 | 14.5 | 17.7 | 0.00 | 0.05 | 0.05 | 83 | 1009.4 |
| 20260507212102 | 27 | 16 | 14.5 | 19.3 | 0.00 | 0.05 | 0.05 | 83 | 1009.4 |
| 20260507211559 | 27 | 36 | 11.3 | 14.5 | 0.00 | 0.05 | 0.05 | 83 | 1009.4 |
| 20260507211055 | 27 | 30 | 9.7 | 14.5 | 0.00 | 0.05 | 0.05 | 83 | 1009.4 |
| 20260507210553 | 27 | 18 | 14.5 | 19.3 | 0.00 | 0.05 | 0.05 | 83 | 1009.4 |
| 20260507210049 | 27 | 18 | 12.9 | 14.5 | 0.00 | 0.05 | 0.05 | 83 | 1009.4 |
| 20260507205546 | 27 | 11 | 14.5 | 17.7 | 0.00 | 0.05 | 0.05 | 83 | 1009.4 |
| 20260507205042 | 27 | 28 | 14.5 | 19.3 | 0.00 | 0.05 | 0.05 | 84 | 1009.4 |
| 20260507204539 | 27 | 26 | 11.3 | 16.1 | 0.00 | 0.05 | 0.05 | 84 | 1009.4 |
| 20260507204036 | 27 | 29 | 9.7 | 14.5 | 0.00 | 0.05 | 0.05 | 85 | 1009.4 |
| 20260507203534 | 27 | 24 | 11.3 | 14.5 | 0.00 | 0.05 | 0.05 | 85 | 1009.4 |
| 20260507203031 | 27 | 36 | 12.9 | 16.1 | 0.00 | 0.05 | 0.05 | 85 | 1009.8 |
| 20260507202527 | 27 | 33 | 9.7 | 14.5 | 0.00 | 0.05 | 0.05 | 85 | 1009.4 |
| 20260507202023 | 27 | 43 | 14.5 | 20.9 | 0.00 | 0.05 | 0.05 | 85 | 1009.4 |
| 20260507201519 | 27 | 37 | 11.3 | 16.1 | 0.00 | 0.05 | 0.05 | 86 | 1009.4 |
| 20260507201016 | 27 | 39 | 11.3 | 14.5 | 0.00 | 0.05 | 0.05 | 85 | 1009.4 |
| 20260507200511 | 27 | 22 | 12.9 | 20.9 | 0.00 | 0.05 | 0.05 | 85 | 1009.4 |
| 20260507200007 | 27 | 21 | 11.3 | 16.1 | 0.00 | 0.05 | 0.05 | 86 | 1009.4 |
| 20260507195505 | 27 | 22 | 8.0 | 11.3 | 0.00 | 0.05 | 0.05 | 86 | 1009.4 |
| 20260507195002 | 27 | 31 | 9.7 | 14.5 | 0.00 | 0.05 | 0.05 | 86 | 1009.4 |
| 20260507194458 | 27 | 27 | 11.3 | 14.5 | 0.00 | 0.05 | 0.05 | 86 | 1009.4 |
| 20260507193954 | 27 | 21 | 9.7 | 14.5 | 0.00 | 0.05 | 0.05 | 86 | 1009.4 |
| 20260507193452 | 27 | 16 | 9.7 | 14.5 | 0.00 | 0.05 | 0.05 | 86 | 1009.4 |
| 20260507192948 | 27 | 16 | 11.3 | 14.5 | 0.00 | 0.05 | 0.05 | 86 | 1009.4 |
| 20260507192444 | 27 | 26 | 8.0 | 11.3 | 0.00 | 0.05 | 0.05 | 85 | 1009.4 |
| 20260507191942 | 27 | 25 | 11.3 | 16.1 | 0.00 | 0.05 | 0.05 | 85 | 1009.4 |
| 20260507191437 | 27 | 26 | 9.7 | 12.9 | 0.00 | 0.05 | 0.05 | 85 | 1009.4 |
| 20260507190934 | 27 | 21 | 11.3 | 14.5 | 0.00 | 0.05 | 0.05 | 85 | 1009.4 |
| 20260507190432 | 27 | 31 | 9.7 | 14.5 | 0.00 | 0.05 | 0.05 | 85 | 1009.4 |
| 20260507185931 | 27 | 38 | 12.9 | 16.1 | 0.00 | 0.05 | 0.05 | 85 | 1009.1 |
| 20260507185428 | 27 | 37 | 9.7 | 11.3 | 0.00 | 0.05 | 0.05 | 84 | 1009.1 |
| 20260507184924 | 27 | 39 | 14.5 | 16.1 | 0.00 | 0.05 | 0.05 | 84 | 1009.1 |
| 20260507184422 | 27 | 27 | 9.7 | 14.5 | 0.00 | 0.05 | 0.05 | 84 | 1009.1 |
| 20260507183920 | 27 | 31 | 11.3 | 12.9 | 0.00 | 0.05 | 0.05 | 85 | 1009.1 |
| 20260507183416 | 27 | 18 | 8.0 | 12.9 | 0.00 | 0.05 | 0.05 | 84 | 1009.1 |
| 20260507182914 | 27 | 14 | 9.7 | 12.9 | 0.00 | 0.05 | 0.05 | 84 | 1008.8 |
| 20260507182409 | 27 | 30 | 12.9 | 14.5 | 0.00 | 0.05 | 0.05 | 83 | 1008.8 |
| 20260507181906 | 27 | 22 | 9.7 | 12.9 | 0.00 | 0.05 | 0.05 | 83 | 1008.8 |
| 20260507181402 | 27 | 17 | 16.1 | 19.3 | 0.00 | 0.05 | 0.05 | 83 | 1008.8 |
| 20260507180859 | 27 | 29 | 11.3 | 12.9 | 0.00 | 0.05 | 0.05 | 83 | 1008.8 |
| 20260507180355 | 27 | 28 | 16.1 | 20.9 | 0.00 | 0.05 | 0.05 | 83 | 1008.8 |
| 20260507175851 | 27 | 35 | 12.9 | 14.5 | 0.00 | 0.05 | 0.05 | 83 | 1008.8 |
| 20260507175348 | 27 | 33 | 12.9 | 17.7 | 0.00 | 0.05 | 0.05 | 83 | 1008.8 |
| 20260507174846 | 27 | 21 | 12.9 | 17.7 | 0.00 | 0.05 | 0.05 | 83 | 1008.8 |
| 20260507174343 | 27 | 29 | 9.7 | 14.5 | 0.00 | 0.05 | 0.05 | 84 | 1009.1 |
| 20260507173841 | 27 | 21 | 14.5 | 17.7 | 0.00 | 0.05 | 0.05 | 84 | 1009.1 |
| 20260507173337 | 27 | 24 | 8.0 | 9.7 | 0.00 | 0.05 | 0.05 | 84 | 1009.1 |
| 20260507172833 | 27 | 11 | 11.3 | 17.7 | 0.00 | 0.05 | 0.05 | 84 | 1009.1 |
| 20260507172331 | 27 | 28 | 12.9 | 19.3 | 0.00 | 0.05 | 0.05 | 84 | 1009.1 |
| 20260507171826 | 27 | 27 | 11.3 | 12.9 | 0.00 | 0.05 | 0.05 | 85 | 1009.1 |
| 20260507171323 | 27 | 25 | 9.7 | 11.3 | 0.00 | 0.05 | 0.05 | 85 | 1009.1 |
| 20260507170820 | 27 | 29 | 9.7 | 11.3 | 0.00 | 0.05 | 0.05 | 85 | 1009.1 |
| 20260507170317 | 27 | 22 | 11.3 | 14.5 | 0.00 | 0.05 | 0.05 | 85 | 1009.1 |
| 20260507165813 | 27 | 37 | 12.9 | 17.7 | 0.00 | 0.05 | 0.05 | 85 | 1009.1 |